When you browse on this site, cookies collect data to enhance your experience and personalize the content and advertising you see.
Visit our Privacy Policy to learn more. By continuing to use the site, you agree to this use of cookies and data.
  • In Deutschland
  • Länderverzeichnis
  • Für 7 Tage
  • Wassertemperatur
  • Satellitenkarten
  • Wetterkarte
  • Widgets
  • user-avatar
    Anmelden

    Stündliche Wetter Mokre

    Heute, 23 Juli, Dienstag

    Zeit Temperatur Niederschläge Wind Luftdruck Luftfeuchtigkeit
    00:00 +18°C° 0 mm 1 m/S 757 mmHg 74%
    01:00 +16°C° 0 mm 1 m/S 757 mmHg 76%
    02:00 +16°C° 0 mm 1 m/S 756 mmHg 75%
    03:00 +16°C° 0 mm 1 m/S 756 mmHg 74%
    04:00 +16°C° 0 mm 1 m/S 756 mmHg 73%
    05:00 +18°C° 0 mm 1 m/S 756 mmHg 71%
    06:00 +18°C° 0 mm 1 m/S 756 mmHg 70%
    07:00 +19°C° 0 mm 1 m/S 756 mmHg 68%
    08:00 +18°C° 0 mm 2 m/S 756 mmHg 70%
    09:00 +18°C° 0 mm 2 m/S 756 mmHg 72%
    10:00 +17°C° 0 mm 2 m/S 756 mmHg 75%
    11:00 +18°C° 0 mm 3 m/S 756 mmHg 72%
    12:00 +19°C° 0 mm 3 m/S 756 mmHg 70%
    13:00 +20°C° 0 mm 3 m/S 756 mmHg 67%
    14:00 +20°C° 0 mm 3 m/S 756 mmHg 67%
    15:00 +21°C° 0 mm 3 m/S 756 mmHg 66%
    16:00 +21°C° 0 mm 3 m/S 756 mmHg 66%
    17:00 +21°C° 0 mm 3 m/S 755 mmHg 70%
    18:00 +20°C° 0 mm 2 m/S 755 mmHg 74%
    19:00 +19°C° 0 mm 2 m/S 755 mmHg 79%
    20:00 +18°C° 0 mm 2 m/S 755 mmHg 83%
    21:00 +17°C° 0 mm 2 m/S 755 mmHg 86%
    22:00 +16°C° 0 mm 2 m/S 756 mmHg 90%
    23:00 +16°C° 0 mm 2 m/S 756 mmHg 91%

    Morgen, 24 Juli, Mittwoch

    Zeit Temperatur Niederschläge Wind Luftdruck Luftfeuchtigkeit
    00:00 +16°C° 0 mm 1 m/S 755 mmHg 91%
    01:00 +15°C° 0 mm 1 m/S 755 mmHg 92%
    02:00 +15°C° 0 mm 1 m/S 755 mmHg 92%
    03:00 +15°C° 0 mm 1 m/S 755 mmHg 91%
    04:00 +15°C° 0 mm 1 m/S 755 mmHg 91%
    05:00 +16°C° 0 mm 1 m/S 755 mmHg 87%
    06:00 +19°C° 0 mm 1 m/S 755 mmHg 82%
    07:00 +20°C° 0 mm 1 m/S 755 mmHg 78%
    08:00 +21°C° 0 mm 1 m/S 755 mmHg 72%
    09:00 +23°C° 0 mm 1 m/S 755 mmHg 66%
    10:00 +24°C° 0 mm 1 m/S 755 mmHg 61%
    11:00 +25°C° 0 mm 1 m/S 755 mmHg 59%
    12:00 +25°C° 0 mm 2 m/S 755 mmHg 57%
    13:00 +26°C° 0 mm 2 m/S 755 mmHg 55%
    14:00 +26°C° 0 mm 2 m/S 755 mmHg 54%
    15:00 +27°C° 0 mm 2 m/S 755 mmHg 52%
    16:00 +27°C° 0 mm 2 m/S 755 mmHg 50%
    17:00 +26°C° 0 mm 2 m/S 755 mmHg 54%
    18:00 +24°C° 0 mm 2 m/S 755 mmHg 59%
    19:00 +23°C° 0 mm 1 m/S 755 mmHg 63%
    20:00 +22°C° 0 mm 1 m/S 755 mmHg 68%
    21:00 +21°C° 0 mm 1 m/S 755 mmHg 72%
    22:00 +20°C° 0 mm 1 m/S 756 mmHg 76%
    23:00 +20°C° 0 mm 1 m/S 756 mmHg 80%

    übermorgen, 25 Juli, Donnerstag

    Zeit Temperatur Niederschläge Wind Luftdruck Luftfeuchtigkeit
    00:00 +19°C° 0 mm 1 m/S 756 mmHg 84%
    01:00 +19°C° 0 mm 1 m/S 756 mmHg 88%
    02:00 +18°C° 0 mm 1 m/S 756 mmHg 89%
    03:00 +18°C° 0 mm 1 m/S 756 mmHg 90%
    04:00 +18°C° 0 mm 1 m/S 756 mmHg 91%
    05:00 +19°C° 0 mm 1 m/S 756 mmHg 85%
    06:00 +21°C° 0 mm 1 m/S 756 mmHg 79%
    07:00 +22°C° 0 mm 1 m/S 756 mmHg 73%
    08:00 +24°C° 0 mm 1 m/S 756 mmHg 67%
    09:00 +25°C° 0 mm 2 m/S 756 mmHg 62%
    10:00 +26°C° 0 mm 2 m/S 756 mmHg 56%
    11:00 +27°C° 0 mm 2 m/S 756 mmHg 52%
    12:00 +28°C° 0 mm 2 m/S 755 mmHg 49%
    13:00 +28°C° 0 mm 2 m/S 755 mmHg 45%
    14:00 +28°C° 0 mm 3 m/S 755 mmHg 45%
    15:00 +28°C° 0 mm 3 m/S 754 mmHg 44%
    16:00 +28°C° 0 mm 3 m/S 754 mmHg 44%
    17:00 +27°C° 0 mm 3 m/S 754 mmHg 51%
    18:00 +25°C° 0 mm 3 m/S 754 mmHg 59%
    19:00 +24°C° 0 mm 3 m/S 754 mmHg 66%
    20:00 +21°C° 0 mm 3 m/S 754 mmHg 69%
    21:00 +20°C° 0 mm 3 m/S 754 mmHg 72%
    22:00 +18°C° 0 mm 3 m/S 754 mmHg 76%
    23:00 +18°C° 0 mm 3 m/S 754 mmHg 80%

    26 Juli, Freitag

    Zeit Temperatur Niederschläge Wind Luftdruck Luftfeuchtigkeit
    00:00 +17°C° 0 mm 3 m/S 754 mmHg 85%
    01:00 +16°C° 0 mm 2 m/S 754 mmHg 90%
    02:00 +16°C° 0 mm 2 m/S 754 mmHg 92%
    03:00 +15°C° 0 mm 2 m/S 754 mmHg 93%
    04:00 +15°C° 0 mm 2 m/S 754 mmHg 94%
    05:00 +17°C° 0 mm 3 m/S 753 mmHg 89%
    06:00 +18°C° 0 mm 3 m/S 753 mmHg 83%
    07:00 +19°C° 0 mm 3 m/S 753 mmHg 77%
    08:00 +21°C° 0 mm 4 m/S 753 mmHg 70%
    09:00 +22°C° 0 mm 4 m/S 753 mmHg 62%
    10:00 +25°C° 0 mm 4 m/S 753 mmHg 55%
    11:00 +26°C° 0.1 mm 4 m/S 753 mmHg 54%
    12:00 +26°C° 0.1 mm 4 m/S 753 mmHg 53%
    13:00 +27°C° 0.1 mm 4 m/S 752 mmHg 52%
    14:00 +26°C° 0.2 mm 5 m/S 752 mmHg 55%
    15:00 +26°C° 0.2 mm 5 m/S 752 mmHg 58%
    16:00 +26°C° 0.2 mm 5 m/S 752 mmHg 61%
    17:00 +25°C° 0.1 mm 4 m/S 752 mmHg 67%
    18:00 +23°C° 0.1 mm 4 m/S 752 mmHg 72%
    19:00 +22°C° 0.1 mm 3 m/S 752 mmHg 78%
    20:00 +21°C° 0 mm 3 m/S 752 mmHg 80%
    21:00 +20°C° 0 mm 3 m/S 752 mmHg 83%
    22:00 +20°C° 0 mm 3 m/S 752 mmHg 85%
    23:00 +19°C° 0.1 mm 3 m/S 752 mmHg 87%

    27 Juli, Samstag

    Zeit Temperatur Niederschläge Wind Luftdruck Luftfeuchtigkeit
    00:00 +19°C° 0.1 mm 3 m/S 752 mmHg 90%
    01:00 +18°C° 0.1 mm 3 m/S 752 mmHg 93%
    02:00 +18°C° 0 mm 3 m/S 752 mmHg 94%
    03:00 +17°C° 0 mm 3 m/S 752 mmHg 95%
    04:00 +17°C° 0 mm 3 m/S 751 mmHg 96%
    05:00 +18°C° 0 mm 3 m/S 752 mmHg 92%
    06:00 +19°C° 0 mm 4 m/S 752 mmHg 88%
    07:00 +20°C° 0 mm 4 m/S 752 mmHg 84%
    08:00 +21°C° 0 mm 4 m/S 752 mmHg 77%
    09:00 +23°C° 0 mm 5 m/S 752 mmHg 70%
    10:00 +25°C° 0 mm 5 m/S 752 mmHg 63%
    11:00 +26°C° 0.2 mm 5 m/S 752 mmHg 60%
    12:00 +27°C° 0.2 mm 5 m/S 752 mmHg 58%
    13:00 +27°C° 0.2 mm 6 m/S 751 mmHg 55%
    14:00 +27°C° 0.4 mm 6 m/S 751 mmHg 56%
    15:00 +27°C° 0.4 mm 6 m/S 751 mmHg 58%
    16:00 +27°C° 0.4 mm 6 m/S 751 mmHg 59%
    17:00 +26°C° 0.1 mm 5 m/S 751 mmHg 63%
    18:00 +25°C° 0.1 mm 4 m/S 751 mmHg 67%
    19:00 +23°C° 0.1 mm 4 m/S 751 mmHg 70%
    20:00 +22°C° 0.1 mm 3 m/S 751 mmHg 76%
    21:00 +21°C° 0.1 mm 3 m/S 751 mmHg 82%
    22:00 +20°C° 0.1 mm 3 m/S 751 mmHg 88%
    23:00 +20°C° 0 mm 3 m/S 751 mmHg 88%

    28 Juli, Sonntag

    Zeit Temperatur Niederschläge Wind Luftdruck Luftfeuchtigkeit
    00:00 +19°C° 0 mm 3 m/S 751 mmHg 89%
    01:00 +19°C° 0 mm 3 m/S 751 mmHg 90%
    02:00 +19°C° 0 mm 3 m/S 751 mmHg 91%
    03:00 +19°C° 0 mm 3 m/S 751 mmHg 92%
    04:00 +19°C° 0 mm 3 m/S 751 mmHg 92%
    05:00 +20°C° 0 mm 3 m/S 751 mmHg 88%
    06:00 +21°C° 0 mm 4 m/S 751 mmHg 84%
    07:00 +22°C° 0 mm 4 m/S 751 mmHg 79%
    08:00 +23°C° 0.3 mm 5 m/S 751 mmHg 74%
    09:00 +26°C° 0.3 mm 5 m/S 751 mmHg 68%
    10:00 +27°C° 0.3 mm 6 m/S 751 mmHg 62%
    11:00 +28°C° 1 mm 6 m/S 750 mmHg 61%
    12:00 +28°C° 1 mm 6 m/S 750 mmHg 60%
    13:00 +28°C° 1 mm 6 m/S 750 mmHg 59%
    14:00 +28°C° 0.7 mm 5 m/S 750 mmHg 59%
    15:00 +28°C° 0.7 mm 5 m/S 750 mmHg 60%
    16:00 +29°C° 0.7 mm 4 m/S 749 mmHg 60%
    17:00 +27°C° 0.3 mm 4 m/S 749 mmHg 65%
    18:00 +26°C° 0.3 mm 4 m/S 749 mmHg 70%
    19:00 +25°C° 0.3 mm 3 m/S 749 mmHg 75%
    20:00 +24°C° 0.1 mm 3 m/S 749 mmHg 78%
    21:00 +22°C° 0.1 mm 3 m/S 750 mmHg 81%
    22:00 +22°C° 0.1 mm 3 m/S 750 mmHg 83%
    23:00 +21°C° 0.2 mm 3 m/S 750 mmHg 86%
    Mehr zeigen